Location: Montreal
(45.5087°N, 73.5540°W)
Time: 02:45:36
(UTC-04:00)

Envisat - Visible Passes

Search period start: 19 June 2018 00:00
Search period end: 29 June 2018 00:00
Orbit: 764 x 766 km, 98.2° (Epoch: 18 June)

Date Brightness Start Highest point End Pass type
(mag) Time Alt. Az. Time Alt. Az. Time Alt. Az.
20 Jun 5.5 21:23:23 10° SW 21:26:51 18° W 21:30:20 10° NW visible
22 Jun 6.1 21:52:10 10° W 21:52:46 10° W 21:53:23 10° WNW visible
25 Jun 5.7 21:39:04 10° WSW 21:41:27 13° W 21:43:51 10° WNW visible
28 Jun 5.6 21:26:57 10° SW 21:30:09 17° W 21:33:23 10° NW visible
